{"data":{"norad_id":68691,"intl_designator":"2026-080A","name":"JILIN GAOFEN OBJECT A","alt_names":[],"object_type":"PAYLOAD","status":"ACTIVE","operator":null,"country":"PRC","launch_date":"2026-04-14","launch_site_code":"JSC","launch_vehicle":null,"mission":null,"orbit_class":"UNKNOWN","rcs_meters":null,"size_class":null,"mass_kg":null,"dimensions":null,"purposes":[],"wikipedia_slug":null,"has_3d_model":false,"image_url":null,"decayed_at":null,"tle_current":{"epoch":"2026-05-21T02:14:39.153408Z","epoch_age_seconds":423130,"freshness":"STALE","line1":"1 68691U 26080A   26141.09350872  .00004403  00000+0  28499-3 0  9999","line2":"2 68691  97.6617 216.6604 0013393 151.8197 208.3759 15.08617800  5571","mean_motion":15.086178,"eccentricity":0.0013393,"inclination_deg":97.6617,"raan_deg":216.6604,"arg_perigee_deg":151.8197,"mean_anomaly_deg":208.3759,"bstar":0.00028499,"rev_number":557,"period_min":95.451611402172,"perigee_km":531.15662189422,"apogee_km":549.68867576958,"semimajor_km":6918.5596488319,"source":"CELESTRAK","updated_at":"2026-05-25T13:38:08.022342Z"}}}